Heraklion, Greece

11:46 AM EET on December 10, 2016 (GMT +0200)
Nikos Kazantzakis

Weather History for LGIR - February, 2013

Change the Weather History Date:

Sunday, February 3, 2013

  Actual Average Record
Temperature  
Mean Temperature 62 °F -  
Max Temperature 66 °F 60 °F 71 °F (2009)
Min Temperature 57 °F 48 °F 39 °F (2005)
Degree Days  
Heating Degree Days 4    
Growing Degree Days 12 (Base 50)    
Moisture  
Dew Point 50 °F    
Average Humidity 66    
Maximum Humidity 77    
Minimum Humidity 45    
Precipitation  
Precipitation 0.00 in 0.10 in - ()
Sea Level Pressure  
Sea Level Pressure 29.95 in    
Wind  
Wind Speed 21 mph ()    
Max Wind Speed 36 mph    
Max Gust Speed 41 mph    
Visibility 6.3 miles    
Events      
Averages and records for this station are not official NWS values.
T = Trace of Precipitation, MM = Missing Value Source: Averaged Metar Reports

Daily Weather History Graph

Daily Weather History Graph

Search for Another Location

Airport or City:

Trip Planner

Search our weather history database for the weather conditions in past years. The results will help you decide how hot, cold, wet, or windy it might be!

Date:

Astronomy

Feb. 03, 2013 Rise Set
Actual Time 7:17 AM EET 5:49 PM EET
Civil Twilight 6:50 AM EET 6:16 PM EET
Nautical Twilight 6:20 AM EET 6:46 PM EET
Astronomical Twilight 5:50 AM EET 7:16 PM EET
Moon 12:23 AM EET (2/3) 11:13 AM EET (2/3)
Length of Visible Light 11h 25m
Length of Day
10h 32m
Waning Gibbous, 52% of the Moon is Illuminated
Feb 3
Waning Gibbous
Feb 3
Last Quarter
Feb 10
New
Feb 17
First Quarter
Feb 25
Full

Hourly Weather History & Observations

Time (EET) Temp. Dew Point Humidity Pressure Visibility Wind Dir Wind Speed Gust Speed Precip Events Conditions
12:20 AM 59.0 °F 50.0 °F 72% 29.92 in - South 24.2 mph - N/A   Clear
12:50 AM 57.2 °F 50.0 °F 77% 29.92 in - South 27.6 mph - N/A   Clear
1:20 AM 57.2 °F 50.0 °F 77% 29.92 in - South 26.5 mph - N/A   Clear
1:50 AM 59.0 °F 51.8 °F 77% 29.92 in - South 25.3 mph - N/A   Clear
2:00 AM 59 °F 51 °F 68% 29.94 in 6 mi South 25.3 mph - -  
2:20 AM 59.0 °F 51.8 °F 77% 29.92 in - South 26.5 mph - N/A   Clear
2:50 AM 59.0 °F 50.0 °F 72% 29.92 in 6.2 mi South 25.3 mph - N/A   Partly Cloudy
3:20 AM 59.0 °F 50.0 °F 72% 29.92 in 6.2 mi South 29.9 mph - N/A   Partly Cloudy
3:50 AM 59.0 °F 50.0 °F 72% 29.92 in 6.2 mi South 28.8 mph - N/A   Partly Cloudy
4:20 AM 59.0 °F 50.0 °F 72% 29.92 in 6.2 mi South 32.2 mph - N/A   Partly Cloudy
4:50 AM 59.0 °F 51.8 °F 77% 29.89 in 6.2 mi South 33.4 mph - N/A   Partly Cloudy
5:20 AM 59.0 °F 51.8 °F 77% 29.89 in 6.2 mi South 35.7 mph - N/A   Partly Cloudy
5:50 AM 59.0 °F 51.8 °F 77% 29.89 in 6.2 mi South 29.9 mph - N/A   Partly Cloudy
6:20 AM 59.0 °F 51.8 °F 77% 29.89 in 6.2 mi SSE 25.3 mph - N/A   Partly Cloudy
6:50 AM 59.0 °F 50.0 °F 72% 29.92 in 6.2 mi SSE 25.3 mph - N/A   Partly Cloudy
7:20 AM 59.0 °F 50.0 °F 72% 29.92 in 6.2 mi South 25.3 mph 36.8 mph N/A   Partly Cloudy
7:50 AM 60.8 °F 46.4 °F 59% 29.95 in 6.2 mi South 27.6 mph 39.1 mph N/A   Partly Cloudy
8:00 AM 61 °F 47 °F 50% 29.95 in 9 mi South 27.6 mph - -   Scattered Clouds
8:20 AM 60.8 °F 46.4 °F 59% 29.95 in 6.2 mi SSW 17.3 mph 28.8 mph N/A   Partly Cloudy
8:50 AM 62.6 °F 51.8 °F 68% 29.95 in 6.2 mi ESE 17.3 mph - N/A   Partly Cloudy
9:20 AM 62.6 °F 51.8 °F 68% 29.95 in 6.2 mi South 11.5 mph - N/A   Partly Cloudy
9:50 AM 64.4 °F 50.0 °F 59% 29.95 in 6.2 mi South 18.4 mph 29.9 mph N/A   Partly Cloudy
10:20 AM 64.4 °F 50.0 °F 59% 29.95 in 6.2 mi South 23.0 mph 34.5 mph N/A   Partly Cloudy
10:50 AM 66.2 °F 50.0 °F 56% 29.95 in 6.2 mi South 25.3 mph 36.8 mph N/A   Partly Cloudy
11:20 AM 66.2 °F 50.0 °F 56% 29.95 in 6.2 mi South 25.3 mph 36.8 mph N/A   Partly Cloudy
11:50 AM 66.2 °F 50.0 °F 56% 29.95 in 6.2 mi SSW 25.3 mph 36.8 mph N/A   Partly Cloudy
12:20 PM 66.2 °F 50.0 °F 56% 29.95 in 6.2 mi South 29.9 mph 41.4 mph N/A   Partly Cloudy
12:50 PM 66.2 °F 50.0 °F 56% 29.95 in 6.2 mi South 25.3 mph 36.8 mph N/A   Partly Cloudy
1:20 PM 66.2 °F 50.0 °F 56% 29.95 in 6.2 mi South 23.0 mph - N/A   Partly Cloudy
1:50 PM 66.2 °F 50.0 °F 56% 29.95 in 6.2 mi South 21.9 mph - N/A   Partly Cloudy
2:00 PM 67 °F 51 °F 45% 29.97 in 9 mi South 21.9 mph - -   Scattered Clouds
2:20 PM 66.2 °F 50.0 °F 56% 29.95 in 6.2 mi South 25.3 mph - N/A   Partly Cloudy
2:50 PM 66.2 °F 50.0 °F 56% 29.95 in 6.2 mi NNE 21.9 mph - N/A   Partly Cloudy
3:20 PM 66.2 °F 50.0 °F 56% 29.95 in 6.2 mi South 23.0 mph - N/A   Partly Cloudy
3:50 PM 66.2 °F 50.0 °F 56% 29.95 in 6.2 mi South 17.3 mph 28.8 mph N/A   Partly Cloudy
4:20 PM 64.4 °F 50.0 °F 59% 29.95 in 6.2 mi South 20.7 mph - N/A   Partly Cloudy
4:50 PM 62.6 °F 50.0 °F 63% 29.95 in 6.2 mi South 18.4 mph - N/A   Partly Cloudy
5:20 PM 60.8 °F 50.0 °F 68% 29.95 in 6.2 mi South 19.6 mph - N/A   Partly Cloudy
5:50 PM 60.8 °F 50.0 °F 68% 29.95 in 6.2 mi South 16.1 mph - N/A   Partly Cloudy
6:20 PM 59.0 °F 50.0 °F 72% 29.95 in 6.2 mi South 13.8 mph - N/A   Partly Cloudy
6:50 PM 59.0 °F 48.2 °F 67% 29.95 in 6.2 mi South 8.1 mph - N/A   Partly Cloudy
7:20 PM 59.0 °F 48.2 °F 67% 29.98 in 6.2 mi SSE 9.2 mph - N/A   Partly Cloudy
7:50 PM 59.0 °F 51.8 °F 77% 29.98 in 6.2 mi South 10.4 mph - N/A   Partly Cloudy
8:00 PM 60 °F 51 °F 64% 29.98 in 6 mi South 10.4 mph - -   Scattered Clouds
8:20 PM 59.0 °F 48.2 °F 67% 29.98 in 6.2 mi South 11.5 mph - N/A   Partly Cloudy
8:50 PM 59.0 °F 48.2 °F 67% 29.98 in 6.2 mi South 11.5 mph - N/A   Partly Cloudy
9:20 PM 59.0 °F 48.2 °F 67% 29.98 in 6.2 mi South 4.6 mph - N/A   Partly Cloudy
9:50 PM 60.8 °F 51.8 °F 72% 29.98 in 6.2 mi South 6.9 mph - N/A   Partly Cloudy
10:20 PM 60.8 °F 51.8 °F 72% 29.98 in 6.2 mi South 6.9 mph - N/A   Partly Cloudy
10:50 PM 60.8 °F 53.6 °F 77% 29.98 in 6.2 mi South 8.1 mph - N/A   Partly Cloudy
11:20 PM 60.8 °F 53.6 °F 77% 29.98 in 6.2 mi South 8.1 mph - N/A   Partly Cloudy
11:50 PM 60.8 °F 53.6 °F 77% 29.98 in 6.2 mi South 9.2 mph - N/A   Partly Cloudy